TimeAKDT,TemperatureF,Dew PointF,Humidity,Sea Level PressureIn,VisibilityMPH,Wind Direction,Wind SpeedMPH,Gust SpeedMPH,PrecipitationIn,Events,Conditions,WindDirDegrees,DateUTC
12:51 AM,75.2,46.4,36,29.66,10.0,East,10.4,-,N/A,,Overcast,80,2013-06-26 08:51:00
12:53 AM,75.9,46.9,36,29.63,10.0,East,9.2,-,N/A,,Overcast,80,2013-06-26 08:53:00
1:53 AM,73.9,46.9,38,29.63,10.0,East,10.4,-,N/A,,Overcast,90,2013-06-26 09:53:00
2:53 AM,69.1,48.0,47,29.65,10.0,ESE,3.5,-,N/A,,Clear,120,2013-06-26 10:53:00
3:53 AM,68.0,48.0,49,29.66,10.0,SSE,3.5,-,N/A,,Mostly Cloudy,160,2013-06-26 11:53:00
4:53 AM,64.0,48.9,58,29.67,10.0,Calm,Calm,-,N/A,,Clear,0,2013-06-26 12:53:00
5:53 AM,63.0,48.9,60,29.68,10.0,Calm,Calm,-,N/A,,Mostly Cloudy,0,2013-06-26 13:53:00
6:53 AM,63.0,48.9,60,29.68,10.0,SSW,3.5,-,N/A,,Mostly Cloudy,210,2013-06-26 14:53:00
7:53 AM,66.9,51.1,57,29.69,10.0,Calm,Calm,-,N/A,,Mostly Cloudy,0,2013-06-26 15:53:00
8:53 AM,70.0,50.0,49,29.69,10.0,Calm,Calm,-,N/A,,Mostly Cloudy,0,2013-06-26 16:53:00
9:53 AM,75.0,52.0,44,29.69,10.0,Calm,Calm,-,N/A,,Mostly Cloudy,0,2013-06-26 17:53:00
10:53 AM,78.1,52.0,40,28.38,10.0,East,6.9,-,N/A,,Overcast,100,2013-06-26 18:53:00
11:53 AM,81.0,51.1,35,28.37,10.0,East,4.6,-,N/A,,Overcast,80,2013-06-26 19:53:00
12:53 PM,84.2,48.2,29,29.67,10.0,ESE,4.6,-,N/A,,Overcast,110,2013-06-26 20:53:00
1:53 PM,84.2,46.4,27,29.67,6.0,NE,5.8,-,N/A,,Smoke,50,2013-06-26 21:53:00
2:53 PM,86.0,46.9,26,29.67,9.0,East,3.5,-,N/A,,Mostly Cloudy,80,2013-06-26 22:53:00
3:53 PM,88.0,45.0,22,29.66,10.0,NNE,11.5,-,N/A,,Scattered Clouds,30,2013-06-26 23:53:00
4:53 PM,90.0,45.0,21,29.65,10.0,NNE,6.9,-,N/A,,Scattered Clouds,30,2013-06-27 00:53:00
5:53 PM,90.0,43.0,19,29.65,10.0,East,6.9,-,N/A,,Scattered Clouds,80,2013-06-27 01:53:00
6:53 PM,90.0,42.1,19,29.65,9.0,East,5.8,-,N/A,,Scattered Clouds,90,2013-06-27 02:53:00
7:53 PM,89.1,44.1,21,29.65,10.0,NNE,3.5,-,N/A,,Scattered Clouds,20,2013-06-27 03:53:00
8:53 PM,89.1,46.0,22,29.65,10.0,Calm,Calm,-,N/A,,Scattered Clouds,0,2013-06-27 04:53:00
9:53 PM,86.0,46.9,26,28.36,10.0,Calm,Calm,-,N/A,,Partly Cloudy,0,2013-06-27 05:53:00
10:53 PM,80.1,52.0,38,29.69,10.0,West,6.9,-,N/A,,Clear,260,2013-06-27 06:53:00
11:53 PM,75.0,52.0,44,29.72,10.0,West,10.4,-,N/A,,Clear,280,2013-06-27 07:53:00